Time,TemperatureF,DewpointF,PressureIn,WindDirection,WindDirectionDegrees,WindSpeedMPH,WindSpeedGustMPH,Humidity,HourlyPrecipIn,Conditions,Clouds,dailyrainin,SoftwareType,DateUTC
2013-02-10 00:00:00,70.6,62.3,30.18,ENE,58,1.0,2.0,75,0.00,,,0.00,Wunderground v.1.15,2013-02-10 05:00:00,
2013-02-10 00:01:00,70.6,62.3,30.18,East,80,2.0,2.0,75,0.00,,,0.00,Wunderground v.1.15,2013-02-10 05:01:00,
2013-02-10 00:02:00,70.6,62.3,30.18,East,87,3.0,3.0,75,0.00,,,0.00,Wunderground v.1.15,2013-02-10 05:02:00,
2013-02-10 00:04:00,70.6,62.3,30.18,East,93,5.0,5.0,75,0.00,,,0.00,Wunderground v.1.15,2013-02-10 05:04:00,
2013-02-10 00:10:00,70.6,62.3,30.18,East,93,1.0,2.0,75,0.00,,,0.00,Wunderground v.1.15,2013-02-10 05:10:00,
2013-02-10 00:16:00,70.7,62.4,30.18,ENE,71,2.0,4.0,75,0.00,,,0.00,Wunderground v.1.15,2013-02-10 05:16:00,
2013-02-10 00:22:00,70.6,62.3,30.18,NE,56,0.0,3.0,75,0.00,,,0.00,Wunderground v.1.15,2013-02-10 05:22:00,
2013-02-10 00:27:00,70.6,62.3,30.18,East,86,2.0,3.0,75,0.00,,,0.00,Wunderground v.1.15,2013-02-10 05:27:00,
2013-02-10 00:33:00,70.5,62.2,30.17,ENE,77,2.0,2.0,75,0.00,,,0.00,Wunderground v.1.15,2013-02-10 05:33:00,
2013-02-10 00:39:00,70.5,61.8,30.17,East,86,0.0,5.0,74,0.00,,,0.00,Wunderground v.1.15,2013-02-10 05:39:00,
2013-02-10 00:45:00,70.6,61.5,30.17,ESE,110,2.0,3.0,73,0.00,,,0.00,Wunderground v.1.15,2013-02-10 05:45:00,
2013-02-10 00:50:00,70.6,61.5,30.18,ENE,69,0.0,2.0,73,0.00,,,0.00,Wunderground v.1.15,2013-02-10 05:50:00,
2013-02-10 00:55:00,70.5,61.4,30.17,East,96,0.0,2.0,73,0.00,,,0.00,Wunderground v.1.15,2013-02-10 05:55:00,
2013-02-10 01:00:00,70.5,61.4,30.18,ENE,78,0.0,1.0,73,0.00,,,0.00,Wunderground v.1.15,2013-02-10 06:00:00,
2013-02-10 01:06:00,70.3,61.6,30.17,ENE,58,0.0,3.0,74,0.00,,,0.00,Wunderground v.1.15,2013-02-10 06:06:00,
2013-02-10 01:11:00,70.2,61.5,30.17,East,101,2.0,2.0,74,0.00,,,0.00,Wunderground v.1.15,2013-02-10 06:11:00,
2013-02-10 01:16:00,70.3,61.6,30.17,East,83,0.0,2.0,74,0.00,,,0.00,Wunderground v.1.15,2013-02-10 06:16:00,
2013-02-10 01:22:00,70.1,61.4,30.17,East,85,4.0,4.0,74,0.00,,,0.00,Wunderground v.1.15,2013-02-10 06:22:00,
2013-02-10 01:27:00,70.1,61.4,30.17,NE,47,1.0,5.0,74,0.00,,,0.00,Wunderground v.1.15,2013-02-10 06:27:00,
2013-02-10 01:32:00,70.2,61.5,30.17,NE,41,2.0,2.0,74,0.00,,,0.00,Wunderground v.1.15,2013-02-10 06:32:00,
2013-02-10 01:38:00,70.1,61.8,30.17,East,95,4.0,4.0,75,0.00,,,0.00,Wunderground v.1.15,2013-02-10 06:38:00,
2013-02-10 01:43:00,70.0,61.7,30.17,ENE,70,0.0,1.0,75,0.00,,,0.00,Wunderground v.1.15,2013-02-10 06:43:00,
2013-02-10 01:49:00,70.0,61.7,30.17,East,82,1.0,2.0,75,0.00,,,0.00,Wunderground v.1.15,2013-02-10 06:49:00,
2013-02-10 01:54:00,69.9,62.0,30.17,ESE,105,1.0,2.0,76,0.00,,,0.00,Wunderground v.1.15,2013-02-10 06:54:00,
2013-02-10 01:59:00,69.9,62.0,30.17,ENE,75,1.0,2.0,76,0.00,,,0.00,Wunderground v.1.15,2013-02-10 06:59:00,
2013-02-10 02:04:00,69.9,62.0,30.17,East,97,1.0,5.0,76,0.00,,,0.00,Wunderground v.1.15,2013-02-10 07:04:00,
2013-02-10 02:09:00,69.9,62.0,30.17,East,91,0.0,5.0,76,0.00,,,0.00,Wunderground v.1.15,2013-02-10 07:09:00,
2013-02-10 02:14:00,69.8,61.9,30.17,ENE,63,0.0,7.0,76,0.00,,,0.00,Wunderground v.1.15,2013-02-10 07:14:00,
2013-02-10 02:19:00,69.9,62.0,30.17,East,101,0.0,7.0,76,0.00,,,0.00,Wunderground v.1.15,2013-02-10 07:19:00,
2013-02-10 02:24:00,70.0,62.1,30.17,East,79,4.0,5.0,76,0.00,,,0.00,Wunderground v.1.15,2013-02-10 07:24:00,
2013-02-10 02:29:00,70.0,62.1,30.16,East,83,0.0,7.0,76,0.00,,,0.00,Wunderground v.1.15,2013-02-10 07:29:00,
2013-02-10 02:34:00,69.9,62.4,30.17,ENE,73,1.0,4.0,77,0.00,,,0.00,Wunderground v.1.15,2013-02-10 07:34:00,
2013-02-10 02:39:00,69.9,62.4,30.16,East,83,1.0,4.0,77,0.00,,,0.00,Wunderground v.1.15,2013-02-10 07:39:00,
2013-02-10 02:44:00,69.9,62.4,30.17,East,84,0.0,4.0,77,0.00,,,0.00,Wunderground v.1.15,2013-02-10 07:44:00,
2013-02-10 02:49:00,69.9,62.4,30.17,East,85,2.0,4.0,77,0.00,,,0.00,Wunderground v.1.15,2013-02-10 07:49:00,
2013-02-10 02:54:00,69.9,62.4,30.17,North,355,0.0,4.0,77,0.00,,,0.00,Wunderground v.1.15,2013-02-10 07:54:00,
2013-02-10 03:00:00,69.9,62.4,30.16,East,89,0.0,1.0,77,0.00,,,0.00,Wunderground v.1.15,2013-02-10 08:00:00,
2013-02-10 03:05:00,69.8,62.6,30.16,East,97,4.0,5.0,78,0.00,,,0.00,Wunderground v.1.15,2013-02-10 08:05:00,
2013-02-10 03:10:00,69.9,62.7,30.16,East,79,2.0,3.0,78,0.00,,,0.00,Wunderground v.1.15,2013-02-10 08:10:00,
2013-02-10 03:15:00,69.8,62.6,30.16,East,86,0.0,5.0,78,0.00,,,0.00,Wunderground v.1.15,2013-02-10 08:15:00,
2013-02-10 03:20:00,69.7,62.5,30.17,East,82,0.0,0.0,78,0.00,,,0.00,Wunderground v.1.15,2013-02-10 08:20:00,
2013-02-10 03:25:00,69.5,62.7,30.16,East,91,0.0,1.0,79,0.00,,,0.00,Wunderground v.1.15,2013-02-10 08:25:00,
2013-02-10 03:30:00,69.3,62.5,30.17,ENE,77,0.0,1.0,79,0.00,,,0.00,Wunderground v.1.15,2013-02-10 08:30:00,
2013-02-10 03:35:00,69.2,62.4,30.17,East,79,0.0,1.0,79,0.00,,,0.00,Wunderground v.1.15,2013-02-10 08:35:00,
2013-02-10 03:40:00,69.1,62.3,30.17,East,89,0.0,1.0,79,0.00,,,0.00,Wunderground v.1.15,2013-02-10 08:40:00,
2013-02-10 03:45:00,69.2,62.0,30.17,East,101,0.0,3.0,78,0.00,,,0.00,Wunderground v.1.15,2013-02-10 08:45:00,
2013-02-10 03:50:00,69.3,61.8,30.17,East,92,1.0,1.0,77,0.00,,,0.00,Wunderground v.1.15,2013-02-10 08:50:00,
2013-02-10 03:55:00,69.5,61.6,30.17,East,89,0.0,2.0,76,0.00,,,0.00,Wunderground v.1.15,2013-02-10 08:55:00,
2013-02-10 04:00:00,69.5,61.6,30.16,East,87,0.0,1.0,76,0.00,,,0.00,Wunderground v.1.15,2013-02-10 09:00:00,
2013-02-10 04:05:00,69.6,61.7,30.17,East,94,0.0,3.0,76,0.00,,,0.00,Wunderground v.1.15,2013-02-10 09:05:00,
2013-02-10 04:10:00,69.4,61.5,30.16,ESE,104,0.0,0.0,76,0.00,,,0.00,Wunderground v.1.15,2013-02-10 09:10:00,
2013-02-10 04:16:00,69.2,61.3,30.17,ESE,108,1.0,2.0,76,0.00,,,0.00,Wunderground v.1.15,2013-02-10 09:16:00,
2013-02-10 04:21:00,69.1,61.2,30.17,ESE,104,0.0,0.0,76,0.00,,,0.00,Wunderground v.1.15,2013-02-10 09:21:00,
2013-02-10 04:26:00,69.0,61.1,30.17,East,91,0.0,1.0,76,0.00,,,0.00,Wunderground v.1.15,2013-02-10 09:26:00,
2013-02-10 04:31:00,69.0,61.1,30.16,ESE,103,0.0,1.0,76,0.00,,,0.00,Wunderground v.1.15,2013-02-10 09:31:00,
2013-02-10 04:36:00,68.9,61.0,30.16,ESE,107,0.0,2.0,76,0.00,,,0.00,Wunderground v.1.15,2013-02-10 09:36:00,
2013-02-10 04:41:00,68.7,61.2,30.16,East,91,0.0,0.0,77,0.00,,,0.00,Wunderground v.1.15,2013-02-10 09:41:00,
2013-02-10 04:46:00,68.6,61.1,30.16,ESE,121,0.0,1.0,77,0.00,,,0.00,Wunderground v.1.15,2013-02-10 09:46:00,
2013-02-10 04:51:00,68.7,61.2,30.16,East,95,0.0,1.0,77,0.00,,,0.00,Wunderground v.1.15,2013-02-10 09:51:00,
2013-02-10 04:56:00,68.6,61.1,30.16,East,92,0.0,1.0,77,0.00,,,0.00,Wunderground v.1.15,2013-02-10 09:56:00,
2013-02-10 05:01:00,68.8,61.3,30.16,East,93,0.0,2.0,77,0.00,,,0.00,Wunderground v.1.15,2013-02-10 10:01:00,
2013-02-10 05:06:00,68.8,61.3,30.16,East,101,0.0,2.0,77,0.00,,,0.00,Wunderground v.1.15,2013-02-10 10:06:00,
2013-02-10 05:10:00,68.6,61.1,30.16,East,94,1.0,1.0,77,0.00,,,0.00,Wunderground v.1.15,2013-02-10 10:10:00,
2013-02-10 05:16:00,68.4,60.9,30.16,ESE,118,0.0,2.0,77,0.00,,,0.00,Wunderground v.1.15,2013-02-10 10:16:00,
2013-02-10 05:20:00,68.3,61.2,30.16,East,87,0.0,0.0,78,0.00,,,0.00,Wunderground v.1.15,2013-02-10 10:20:00,
2013-02-10 05:25:00,68.1,61.0,30.17,ESE,103,0.0,0.0,78,0.00,,,0.00,Wunderground v.1.15,2013-02-10 10:25:00,
2013-02-10 05:30:00,67.9,61.1,30.17,East,87,0.0,1.0,79,0.00,,,0.00,Wunderground v.1.15,2013-02-10 10:30:00,
2013-02-10 05:35:00,67.8,61.0,30.17,East,82,0.0,1.0,79,0.00,,,0.00,Wunderground v.1.15,2013-02-10 10:35:00,
2013-02-10 05:41:00,67.6,60.9,30.17,East,82,0.0,0.0,79,0.00,,,0.00,Wunderground v.1.15,2013-02-10 10:41:00,
2013-02-10 05:46:00,67.5,61.1,30.17,East,82,0.0,0.0,80,0.00,,,0.00,Wunderground v.1.15,2013-02-10 10:46:00,
2013-02-10 05:51:00,67.5,61.1,30.17,East,79,0.0,0.0,80,0.00,,,0.00,Wunderground v.1.15,2013-02-10 10:51:00,
2013-02-10 05:56:00,67.5,61.1,30.17,East,79,0.0,1.0,80,0.00,,,0.00,Wunderground v.1.15,2013-02-10 10:56:00,
2013-02-10 06:01:00,67.4,61.4,30.18,East,80,0.0,1.0,81,0.00,,,0.00,Wunderground v.1.15,2013-02-10 11:01:00,
2013-02-10 06:06:00,67.5,61.5,30.18,SE,127,2.0,3.0,81,0.00,,,0.00,Wunderground v.1.15,2013-02-10 11:06:00,
2013-02-10 06:11:00,68.3,61.9,30.18,SSE,150,2.0,3.0,80,0.00,,,0.00,Wunderground v.1.15,2013-02-10 11:11:00,
2013-02-10 06:16:00,68.9,62.1,30.18,East,94,2.0,4.0,79,0.00,,,0.00,Wunderground v.1.15,2013-02-10 11:16:00,
2013-02-10 06:21:00,69.2,62.0,30.18,East,85,1.0,4.0,78,0.00,,,0.00,Wunderground v.1.15,2013-02-10 11:21:00,
2013-02-10 06:26:00,69.4,61.9,30.19,East,98,0.0,4.0,77,0.00,,,0.00,Wunderground v.1.15,2013-02-10 11:26:00,
2013-02-10 06:31:00,69.5,62.0,30.19,East,86,0.0,1.0,77,0.00,,,0.00,Wunderground v.1.15,2013-02-10 11:31:00,
2013-02-10 06:36:00,69.4,61.9,30.19,East,95,0.0,1.0,77,0.00,,,0.00,Wunderground v.1.15,2013-02-10 11:36:00,
2013-02-10 06:41:00,69.3,61.8,30.19,East,87,0.0,4.0,77,0.00,,,0.00,Wunderground v.1.15,2013-02-10 11:41:00,
2013-02-10 06:46:00,69.4,61.9,30.19,East,94,0.0,4.0,77,0.00,,,0.00,Wunderground v.1.15,2013-02-10 11:46:00,
2013-02-10 06:51:00,69.4,61.9,30.20,SE,128,2.0,3.0,77,0.00,,,0.00,Wunderground v.1.15,2013-02-10 11:51:00,
2013-02-10 06:56:00,69.3,61.4,30.20,East,82,1.0,3.0,76,0.00,,,0.00,Wunderground v.1.15,2013-02-10 11:56:00,
2013-02-10 07:01:00,69.4,61.5,30.20,ESE,103,0.0,1.0,76,0.00,,,0.00,Wunderground v.1.15,2013-02-10 12:01:00,
2013-02-10 07:06:00,69.4,61.5,30.20,East,85,0.0,1.0,76,0.00,,,0.00,Wunderground v.1.15,2013-02-10 12:06:00,
2013-02-10 07:11:00,69.4,61.5,30.20,East,82,0.0,1.0,76,0.00,,,0.00,Wunderground v.1.15,2013-02-10 12:11:00,
2013-02-10 07:16:00,69.3,61.4,30.21,East,87,0.0,1.0,76,0.00,,,0.00,Wunderground v.1.15,2013-02-10 12:16:00,
2013-02-10 07:21:00,69.2,61.3,30.21,East,87,0.0,1.0,76,0.00,,,0.00,Wunderground v.1.15,2013-02-10 12:21:00,
2013-02-10 07:26:00,69.3,61.4,30.21,East,82,0.0,2.0,76,0.00,,,0.00,Wunderground v.1.15,2013-02-10 12:26:00,
2013-02-10 07:31:00,69.4,61.5,30.21,East,98,0.0,0.0,76,0.00,,,0.00,Wunderground v.1.15,2013-02-10 12:31:00,
2013-02-10 07:36:00,69.5,61.6,30.21,East,82,0.0,3.0,76,0.00,,,0.00,Wunderground v.1.15,2013-02-10 12:36:00,
2013-02-10 07:41:00,70.0,61.7,30.21,East,97,0.0,0.0,75,0.00,,,0.00,Wunderground v.1.15,2013-02-10 12:41:00,
2013-02-10 07:46:00,70.6,61.9,30.21,East,82,0.0,2.0,74,0.00,,,0.00,Wunderground v.1.15,2013-02-10 12:46:00,
2013-02-10 07:51:00,71.1,62.0,30.22,East,89,0.0,3.0,73,0.00,,,0.00,Wunderground v.1.15,2013-02-10 12:51:00,
2013-02-10 07:56:00,71.6,62.5,30.21,ESE,108,0.0,3.0,73,0.00,,,0.00,Wunderground v.1.15,2013-02-10 12:56:00,
2013-02-10 08:01:00,72.1,62.6,30.21,East,87,0.0,4.0,72,0.00,,,0.00,Wunderground v.1.15,2013-02-10 13:01:00,
2013-02-10 08:06:00,72.4,62.5,30.22,East,81,0.0,5.0,71,0.00,,,0.00,Wunderground v.1.15,2013-02-10 13:06:00,
2013-02-10 08:11:00,72.9,62.9,30.22,ESE,118,3.0,5.0,71,0.00,,,0.00,Wunderground v.1.15,2013-02-10 13:11:00,
2013-02-10 08:16:00,73.2,62.8,30.22,NE,46,1.0,8.0,70,0.00,,,0.00,Wunderground v.1.15,2013-02-10 13:16:00,
2013-02-10 08:21:00,73.5,62.3,30.22,ESE,120,6.0,8.0,68,0.00,,,0.00,Wunderground v.1.15,2013-02-10 13:21:00,
2013-02-10 08:26:00,73.7,62.9,30.22,ENE,77,2.0,8.0,69,0.00,,,0.00,Wunderground v.1.15,2013-02-10 13:26:00,
2013-02-10 08:31:00,74.0,62.3,30.22,ENE,72,2.0,7.0,67,0.00,,,0.00,Wunderground v.1.15,2013-02-10 13:31:00,
2013-02-10 08:36:00,74.2,63.0,30.22,ESE,118,4.0,10.0,68,0.00,,,0.00,Wunderground v.1.15,2013-02-10 13:36:00,
2013-02-10 08:41:00,74.6,62.9,30.23,ESE,111,0.0,2.0,67,0.00,,,0.00,Wunderground v.1.15,2013-02-10 13:41:00,
2013-02-10 08:46:00,74.7,61.7,30.23,SE,129,7.0,8.0,64,0.00,,,0.00,Wunderground v.1.15,2013-02-10 13:46:00,
2013-02-10 08:51:00,74.7,61.7,30.23,East,82,5.0,7.0,64,0.00,,,0.00,Wunderground v.1.15,2013-02-10 13:51:00,
2013-02-10 08:56:00,74.8,61.8,30.23,ENE,63,2.0,10.0,64,0.00,,,0.00,Wunderground v.1.15,2013-02-10 13:56:00,
2013-02-10 09:01:00,74.9,61.9,30.23,ESE,105,4.0,4.0,64,0.00,,,0.00,Wunderground v.1.15,2013-02-10 14:01:00,
2013-02-10 09:06:00,75.1,61.6,30.24,East,88,7.0,10.0,63,0.00,,,0.00,Wunderground v.1.15,2013-02-10 14:06:00,
2013-02-10 09:11:00,75.1,62.1,30.24,East,84,0.0,3.0,64,0.00,,,0.00,Wunderground v.1.15,2013-02-10 14:11:00,
2013-02-10 09:16:00,75.3,62.3,30.24,East,89,0.0,7.0,64,0.00,,,0.00,Wunderground v.1.15,2013-02-10 14:16:00,
2013-02-10 09:21:00,75.6,62.6,30.24,SE,130,0.0,8.0,64,0.00,,,0.00,Wunderground v.1.15,2013-02-10 14:21:00,
2013-02-10 09:26:00,75.7,63.1,30.24,East,87,2.0,11.0,65,0.00,,,0.00,Wunderground v.1.15,2013-02-10 14:26:00,
2013-02-10 09:31:00,75.4,62.4,30.24,NE,37,2.0,4.0,64,0.00,,,0.00,Wunderground v.1.15,2013-02-10 14:31:00,
2013-02-10 09:36:00,75.0,61.5,30.25,SE,133,5.0,9.0,63,0.00,,,0.00,Wunderground v.1.15,2013-02-10 14:36:00,
2013-02-10 09:41:00,74.9,61.9,30.25,SSE,148,4.0,4.0,64,0.00,,,0.00,Wunderground v.1.15,2013-02-10 14:41:00,
2013-02-10 09:46:00,74.6,61.6,30.25,SE,146,1.0,10.0,64,0.00,,,0.00,Wunderground v.1.15,2013-02-10 14:46:00,
2013-02-10 09:51:00,74.4,61.4,30.25,ENE,69,5.0,8.0,64,0.00,,,0.00,Wunderground v.1.15,2013-02-10 14:51:00,
2013-02-10 09:56:00,74.5,62.0,30.25,ESE,108,0.0,8.0,65,0.00,,,0.00,Wunderground v.1.15,2013-02-10 14:56:00,
2013-02-10 10:01:00,74.5,62.0,30.25,East,93,1.0,6.0,65,0.00,,,0.00,Wunderground v.1.15,2013-02-10 15:01:00,
2013-02-10 10:06:00,75.2,62.2,30.25,SE,143,4.0,9.0,64,0.00,,,0.00,Wunderground v.1.15,2013-02-10 15:06:00,
2013-02-10 10:11:00,75.7,62.7,30.26,ESE,118,1.0,6.0,64,0.00,,,0.00,Wunderground v.1.15,2013-02-10 15:11:00,
2013-02-10 10:16:00,76.0,63.8,30.26,ENE,74,3.0,6.0,66,0.00,,,0.00,Wunderground v.1.15,2013-02-10 15:16:00,
2013-02-10 10:21:00,75.7,62.7,30.26,ESE,108,5.0,6.0,64,0.00,,,0.00,Wunderground v.1.15,2013-02-10 15:21:00,
2013-02-10 10:26:00,75.7,61.8,30.26,East,85,0.0,8.0,62,0.00,,,0.00,Wunderground v.1.15,2013-02-10 15:26:00,
2013-02-10 10:31:00,76.4,62.0,30.26,SSW,192,1.0,4.0,61,0.00,,,0.00,Wunderground v.1.15,2013-02-10 15:31:00,
2013-02-10 10:36:00,77.1,62.6,30.26,East,79,0.0,8.0,61,0.00,,,0.00,Wunderground v.1.15,2013-02-10 15:36:00,
2013-02-10 10:41:00,77.2,62.7,30.26,ENE,70,4.0,10.0,61,0.00,,,0.00,Wunderground v.1.15,2013-02-10 15:41:00,
2013-02-10 10:46:00,76.6,63.1,30.26,ESE,105,6.0,11.0,63,0.00,,,0.00,Wunderground v.1.15,2013-02-10 15:46:00,
2013-02-10 10:51:00,76.6,62.1,30.26,NE,56,3.0,5.0,61,0.00,,,0.00,Wunderground v.1.15,2013-02-10 15:51:00,
2013-02-10 10:56:00,76.9,62.4,30.26,NE,36,0.0,8.0,61,0.00,,,0.00,Wunderground v.1.15,2013-02-10 15:56:00,
2013-02-10 11:01:00,77.0,63.4,30.26,East,89,7.0,7.0,63,0.00,,,0.00,Wunderground v.1.15,2013-02-10 16:01:00,
2013-02-10 11:06:00,76.6,63.5,30.26,NE,52,4.0,10.0,64,0.00,,,0.00,Wunderground v.1.15,2013-02-10 16:06:00,
2013-02-10 11:11:00,76.2,64.0,30.26,ESE,105,1.0,6.0,66,0.00,,,0.00,Wunderground v.1.15,2013-02-10 16:11:00,
2013-02-10 11:16:00,75.9,64.6,30.26,East,93,0.0,9.0,68,0.00,,,0.00,Wunderground v.1.15,2013-02-10 16:16:00,
2013-02-10 11:21:00,75.8,64.9,30.26,East,84,4.0,6.0,69,0.00,,,0.00,Wunderground v.1.15,2013-02-10 16:21:00,
2013-02-10 11:26:00,75.9,65.4,30.26,ESE,108,5.0,12.0,70,0.00,,,0.00,Wunderground v.1.15,2013-02-10 16:26:00,
2013-02-10 11:31:00,75.7,66.0,30.26,SE,139,3.0,9.0,72,0.00,,,0.00,Wunderground v.1.15,2013-02-10 16:31:00,
2013-02-10 11:36:00,75.9,65.4,30.26,East,98,0.0,12.0,70,0.00,,,0.00,Wunderground v.1.15,2013-02-10 16:36:00,
2013-02-10 11:41:00,76.0,66.3,30.25,East,91,9.0,9.0,72,0.00,,,0.00,Wunderground v.1.15,2013-02-10 16:41:00,
2013-02-10 11:46:00,76.0,65.5,30.26,East,98,4.0,10.0,70,0.00,,,0.00,Wunderground v.1.15,2013-02-10 16:46:00,
2013-02-10 11:51:00,75.4,64.9,30.25,ESE,122,7.0,16.0,70,0.00,,,0.00,Wunderground v.1.15,2013-02-10 16:51:00,
2013-02-10 11:56:00,75.1,65.1,30.25,ENE,68,1.0,16.0,71,0.00,,,0.00,Wunderground v.1.15,2013-02-10 16:56:00,
2013-02-10 12:01:00,74.9,65.7,30.25,East,87,4.0,4.0,73,0.00,,,0.00,Wunderground v.1.15,2013-02-10 17:01:00,
2013-02-10 12:06:00,74.4,65.6,30.25,East,100,14.0,14.0,74,0.00,,,0.00,Wunderground v.1.15,2013-02-10 17:06:00,
2013-02-10 12:11:00,73.5,66.2,30.25,East,79,3.0,9.0,78,0.00,,,0.01,Wunderground v.1.15,2013-02-10 17:11:00,
2013-02-10 12:16:00,72.6,66.1,30.25,NE,53,2.0,9.0,80,0.00,,,0.01,Wunderground v.1.15,2013-02-10 17:16:00,
2013-02-10 12:21:00,72.2,66.0,30.25,ENE,70,3.0,7.0,81,0.08,,,0.02,Wunderground v.1.15,2013-02-10 17:21:00,
2013-02-10 12:26:00,72.0,65.5,30.24,ENE,61,2.0,12.0,80,0.07,,,0.02,Wunderground v.1.15,2013-02-10 17:26:00,
2013-02-10 12:31:00,72.1,65.6,30.24,ENE,70,2.0,11.0,80,0.04,,,0.02,Wunderground v.1.15,2013-02-10 17:31:00,
2013-02-10 12:36:00,72.6,66.1,30.24,SE,124,5.0,11.0,80,0.00,,,0.02,Wunderground v.1.15,2013-02-10 17:36:00,
2013-02-10 12:41:00,73.1,66.6,30.24,ESE,117,4.0,7.0,80,0.00,,,0.02,Wunderground v.1.15,2013-02-10 17:41:00,
2013-02-10 12:46:00,73.3,65.3,30.24,SE,129,1.0,13.0,76,0.00,,,0.02,Wunderground v.1.15,2013-02-10 17:46:00,
2013-02-10 12:51:00,73.8,65.8,30.24,SSE,151,2.0,8.0,76,0.00,,,0.02,Wunderground v.1.15,2013-02-10 17:51:00,
2013-02-10 12:56:00,74.3,65.5,30.23,ENE,73,5.0,11.0,74,0.00,,,0.02,Wunderground v.1.15,2013-02-10 17:56:00,
2013-02-10 13:01:00,74.8,66.0,30.23,East,84,2.0,9.0,74,0.00,,,0.02,Wunderground v.1.15,2013-02-10 18:01:00,
2013-02-10 13:06:00,75.6,65.9,30.23,WSW,238,2.0,14.0,72,0.00,,,0.02,Wunderground v.1.15,2013-02-10 18:06:00,
2013-02-10 13:11:00,75.3,65.2,30.23,East,91,5.0,8.0,71,0.00,,,0.02,Wunderground v.1.15,2013-02-10 18:11:00,
2013-02-10 13:16:00,75.0,65.4,30.23,SE,127,2.0,12.0,72,0.00,,,0.02,Wunderground v.1.15,2013-02-10 18:16:00,
2013-02-10 13:21:00,74.9,65.7,30.23,SE,132,4.0,10.0,73,0.00,,,0.02,Wunderground v.1.15,2013-02-10 18:21:00,
2013-02-10 13:26:00,74.9,65.7,30.23,East,95,3.0,10.0,73,0.00,,,0.02,Wunderground v.1.15,2013-02-10 18:26:00,
2013-02-10 13:31:00,75.0,65.0,30.23,East,86,5.0,8.0,71,0.00,,,0.02,Wunderground v.1.15,2013-02-10 18:31:00,
2013-02-10 13:36:00,75.1,65.1,30.23,NNE,32,5.0,10.0,71,0.00,,,0.02,Wunderground v.1.15,2013-02-10 18:36:00,
2013-02-10 13:41:00,75.1,65.5,30.22,SSE,148,3.0,13.0,72,0.00,,,0.02,Wunderground v.1.15,2013-02-10 18:41:00,
2013-02-10 13:46:00,75.2,65.1,30.22,SSE,165,2.0,13.0,71,0.00,,,0.02,Wunderground v.1.15,2013-02-10 18:46:00,
2013-02-10 13:51:00,75.4,64.9,30.22,SE,124,3.0,7.0,70,0.00,,,0.02,Wunderground v.1.15,2013-02-10 18:51:00,
2013-02-10 13:56:00,75.5,65.4,30.22,SE,136,2.0,8.0,71,0.00,,,0.02,Wunderground v.1.15,2013-02-10 18:56:00,
2013-02-10 14:01:00,75.4,65.3,30.22,ESE,114,2.0,8.0,71,0.00,,,0.02,Wunderground v.1.15,2013-02-10 19:01:00,
2013-02-10 14:06:00,75.9,65.8,30.22,ENE,73,8.0,10.0,71,0.00,,,0.02,Wunderground v.1.15,2013-02-10 19:06:00,
2013-02-10 14:11:00,76.4,65.5,30.21,East,91,3.0,11.0,69,0.00,,,0.02,Wunderground v.1.15,2013-02-10 19:11:00,
2013-02-10 14:16:00,76.5,65.1,30.21,East,90,6.0,13.0,68,0.00,,,0.02,Wunderground v.1.15,2013-02-10 19:16:00,
2013-02-10 14:21:00,76.3,65.4,30.21,ESE,123,3.0,13.0,69,0.00,,,0.02,Wunderground v.1.15,2013-02-10 19:21:00,
2013-02-10 14:27:00,76.3,65.4,30.21,East,87,1.0,13.0,69,0.00,,,0.02,Wunderground v.1.15,2013-02-10 19:27:00,
2013-02-10 14:32:00,75.8,64.9,30.21,SSE,158,4.0,8.0,69,0.00,,,0.02,Wunderground v.1.15,2013-02-10 19:32:00,
2013-02-10 14:37:00,75.8,64.9,30.20,East,82,7.0,12.0,69,0.00,,,0.02,Wunderground v.1.15,2013-02-10 19:37:00,
2013-02-10 14:42:00,75.8,64.9,30.21,ENE,68,8.0,13.0,69,0.00,,,0.02,Wunderground v.1.15,2013-02-10 19:42:00,
2013-02-10 14:47:00,75.8,64.5,30.20,ESE,108,2.0,18.0,68,0.00,,,0.02,Wunderground v.1.15,2013-02-10 19:47:00,
2013-02-10 14:52:00,75.3,64.8,30.20,ESE,117,3.0,7.0,70,0.00,,,0.02,Wunderground v.1.15,2013-02-10 19:52:00,
2013-02-10 14:57:00,75.1,65.1,30.20,ENE,76,2.0,12.0,71,0.00,,,0.02,Wunderground v.1.15,2013-02-10 19:57:00,
2013-02-10 15:02:00,75.0,65.0,30.20,ENE,77,4.0,11.0,71,0.00,,,0.02,Wunderground v.1.15,2013-02-10 20:02:00,
2013-02-10 15:07:00,74.7,65.1,30.20,ENE,65,2.0,13.0,72,0.00,,,0.02,Wunderground v.1.15,2013-02-10 20:07:00,
2013-02-10 15:12:00,73.9,65.1,30.20,ENE,73,7.0,10.0,74,0.00,,,0.02,Wunderground v.1.15,2013-02-10 20:12:00,
2013-02-10 15:17:00,73.7,65.3,30.19,East,100,0.0,10.0,75,0.00,,,0.02,Wunderground v.1.15,2013-02-10 20:17:00,
2013-02-10 15:22:00,73.7,65.7,30.19,East,98,1.0,5.0,76,0.00,,,0.02,Wunderground v.1.15,2013-02-10 20:22:00,
2013-02-10 15:27:00,73.9,65.1,30.19,East,93,3.0,9.0,74,0.00,,,0.02,Wunderground v.1.15,2013-02-10 20:27:00,
2013-02-10 15:32:00,74.1,64.9,30.19,ESE,106,4.0,10.0,73,0.00,,,0.02,Wunderground v.1.15,2013-02-10 20:32:00,
2013-02-10 15:37:00,74.4,64.4,30.19,East,80,8.0,10.0,71,0.00,,,0.02,Wunderground v.1.15,2013-02-10 20:37:00,
2013-02-10 15:42:00,74.5,64.5,30.19,SE,126,7.0,12.0,71,0.00,,,0.02,Wunderground v.1.15,2013-02-10 20:42:00,
2013-02-10 15:47:00,74.7,64.7,30.19,East,94,4.0,12.0,71,0.00,,,0.02,Wunderground v.1.15,2013-02-10 20:47:00,
2013-02-10 15:52:00,74.8,64.4,30.19,SE,127,4.0,10.0,70,0.00,,,0.02,Wunderground v.1.15,2013-02-10 20:52:00,
2013-02-10 15:57:00,74.8,64.4,30.19,East,98,2.0,10.0,70,0.00,,,0.02,Wunderground v.1.15,2013-02-10 20:57:00,
2013-02-10 16:02:00,74.9,65.3,30.19,East,92,10.0,10.0,72,0.00,,,0.02,Wunderground v.1.15,2013-02-10 21:02:00,
2013-02-10 16:07:00,74.9,64.0,30.19,East,89,7.0,10.0,69,0.00,,,0.02,Wunderground v.1.15,2013-02-10 21:07:00,
2013-02-10 16:12:00,74.6,64.2,30.19,ESE,106,6.0,13.0,70,0.00,,,0.02,Wunderground v.1.15,2013-02-10 21:12:00,
2013-02-10 16:18:00,74.5,64.1,30.19,NE,47,1.0,13.0,70,0.00,,,0.02,Wunderground v.1.15,2013-02-10 21:18:00,
2013-02-10 16:23:00,74.6,64.2,30.19,East,86,0.0,11.0,70,0.00,,,0.02,Wunderground v.1.15,2013-02-10 21:23:00,
2013-02-10 16:28:00,74.5,63.7,30.19,ESE,108,6.0,14.0,69,0.00,,,0.02,Wunderground v.1.15,2013-02-10 21:28:00,
2013-02-10 16:33:00,74.2,63.8,30.19,ESE,104,3.0,13.0,70,0.00,,,0.02,Wunderground v.1.15,2013-02-10 21:33:00,
2013-02-10 16:38:00,74.1,63.7,30.19,SW,218,1.0,13.0,70,0.00,,,0.02,Wunderground v.1.15,2013-02-10 21:38:00,
2013-02-10 16:43:00,73.9,63.9,30.19,East,101,3.0,11.0,71,0.00,,,0.02,Wunderground v.1.15,2013-02-10 21:43:00,
2013-02-10 16:48:00,74.0,64.0,30.19,ESE,107,3.0,11.0,71,0.00,,,0.02,Wunderground v.1.15,2013-02-10 21:48:00,
2013-02-10 16:53:00,73.8,63.8,30.19,ESE,111,4.0,18.0,71,0.00,,,0.02,Wunderground v.1.15,2013-02-10 21:53:00,
2013-02-10 16:58:00,73.7,63.7,30.19,East,79,4.0,18.0,71,0.00,,,0.02,Wunderground v.1.15,2013-02-10 21:58:00,
2013-02-10 17:03:00,73.7,63.7,30.19,ENE,67,6.0,14.0,71,0.00,,,0.02,Wunderground v.1.15,2013-02-10 22:03:00,
2013-02-10 17:08:00,74.0,64.0,30.19,ESE,103,3.0,14.0,71,0.00,,,0.02,Wunderground v.1.15,2013-02-10 22:08:00,
2013-02-10 17:13:00,74.1,64.1,30.19,East,84,4.0,5.0,71,0.00,,,0.02,Wunderground v.1.15,2013-02-10 22:13:00,
2013-02-10 17:19:00,73.9,63.9,30.19,East,86,7.0,13.0,71,0.00,,,0.02,Wunderground v.1.15,2013-02-10 22:19:00,
2013-02-10 17:24:00,73.7,63.7,30.19,ESE,109,12.0,12.0,71,0.00,,,0.02,Wunderground v.1.15,2013-02-10 22:24:00,
2013-02-10 17:29:00,73.8,63.4,30.19,East,91,3.0,14.0,70,0.00,,,0.02,Wunderground v.1.15,2013-02-10 22:29:00,
2013-02-10 17:34:00,73.5,63.5,30.19,East,91,4.0,7.0,71,0.00,,,0.02,Wunderground v.1.15,2013-02-10 22:34:00,
2013-02-10 17:39:00,73.2,63.2,30.19,ESE,103,8.0,12.0,71,0.00,,,0.02,Wunderground v.1.15,2013-02-10 22:39:00,
2013-02-10 17:44:00,73.1,63.5,30.19,East,79,0.0,10.0,72,0.00,,,0.02,Wunderground v.1.15,2013-02-10 22:44:00,
2013-02-10 17:49:00,72.9,63.3,30.19,East,89,1.0,10.0,72,0.00,,,0.02,Wunderground v.1.15,2013-02-10 22:49:00,
2013-02-10 17:54:00,72.8,63.6,30.19,ESE,117,6.0,11.0,73,0.00,,,0.02,Wunderground v.1.15,2013-02-10 22:54:00,
2013-02-10 17:59:00,72.7,63.5,30.19,East,79,3.0,11.0,73,0.00,,,0.02,Wunderground v.1.15,2013-02-10 22:59:00,
2013-02-10 18:04:00,72.5,63.4,30.19,East,86,5.0,8.0,73,0.00,,,0.02,Wunderground v.1.15,2013-02-10 23:04:00,
2013-02-10 18:09:00,72.3,63.5,30.19,East,89,1.0,8.0,74,0.00,,,0.02,Wunderground v.1.15,2013-02-10 23:09:00,
2013-02-10 18:14:00,72.1,63.4,30.19,ESE,115,4.0,5.0,74,0.00,,,0.02,Wunderground v.1.15,2013-02-10 23:14:00,
2013-02-10 18:19:00,72.0,63.3,30.19,East,87,2.0,6.0,74,0.00,,,0.02,Wunderground v.1.15,2013-02-10 23:19:00,
2013-02-10 18:24:00,72.0,63.3,30.20,East,89,1.0,10.0,74,0.00,,,0.02,Wunderground v.1.15,2013-02-10 23:24:00,
2013-02-10 18:29:00,72.0,63.3,30.20,ESE,104,4.0,10.0,74,0.00,,,0.02,Wunderground v.1.15,2013-02-10 23:29:00,
2013-02-10 18:34:00,72.1,63.0,30.20,East,87,5.0,11.0,73,0.00,,,0.02,Wunderground v.1.15,2013-02-10 23:34:00,
2013-02-10 18:39:00,72.2,63.1,30.20,ENE,64,2.0,11.0,73,0.00,,,0.02,Wunderground v.1.15,2013-02-10 23:39:00,
2013-02-10 18:44:00,72.2,63.1,30.20,ESE,122,4.0,7.0,73,0.00,,,0.02,Wunderground v.1.15,2013-02-10 23:44:00,
2013-02-10 18:49:00,72.2,63.1,30.20,East,96,0.0,8.0,73,0.00,,,0.02,Wunderground v.1.15,2013-02-10 23:49:00,
2013-02-10 18:54:00,72.2,63.1,30.20,South,184,2.0,10.0,73,0.00,,,0.02,Wunderground v.1.15,2013-02-10 23:54:00,
2013-02-10 18:59:00,72.2,63.1,30.20,ESE,121,0.0,10.0,73,0.00,,,0.02,Wunderground v.1.15,2013-02-10 23:59:00,
2013-02-10 19:04:00,72.2,63.1,30.21,East,98,1.0,5.0,73,0.00,,,0.02,Wunderground v.1.15,2013-02-11 00:04:00,
2013-02-10 19:09:00,72.2,63.1,30.21,ESE,114,0.0,5.0,73,0.00,,,0.02,Wunderground v.1.15,2013-02-11 00:09:00,
2013-02-10 19:14:00,72.2,63.1,30.21,East,100,4.0,7.0,73,0.00,,,0.02,Wunderground v.1.15,2013-02-11 00:14:00,
2013-02-10 19:19:00,72.2,63.1,30.21,SE,135,3.0,8.0,73,0.00,,,0.02,Wunderground v.1.15,2013-02-11 00:19:00,
2013-02-10 19:24:00,72.2,63.4,30.21,SE,124,5.0,10.0,74,0.00,,,0.02,Wunderground v.1.15,2013-02-11 00:24:00,
2013-02-10 19:29:00,72.1,63.4,30.21,ENE,75,1.0,10.0,74,0.00,,,0.02,Wunderground v.1.15,2013-02-11 00:29:00,
2013-02-10 19:34:00,72.1,63.4,30.21,ESE,117,1.0,9.0,74,0.00,,,0.02,Wunderground v.1.15,2013-02-11 00:34:00,
2013-02-10 19:39:00,72.1,63.4,30.21,ENE,65,2.0,9.0,74,0.00,,,0.02,Wunderground v.1.15,2013-02-11 00:39:00,
2013-02-10 19:44:00,72.0,63.3,30.22,ESE,114,1.0,6.0,74,0.00,,,0.02,Wunderground v.1.15,2013-02-11 00:44:00,
2013-02-10 19:49:00,72.0,63.3,30.22,East,79,5.0,6.0,74,0.00,,,0.02,Wunderground v.1.15,2013-02-11 00:49:00,
2013-02-10 19:54:00,72.0,63.3,30.22,ENE,77,0.0,5.0,74,0.00,,,0.02,Wunderground v.1.15,2013-02-11 00:54:00,
2013-02-10 19:59:00,71.9,63.5,30.23,East,82,2.0,8.0,75,0.00,,,0.02,Wunderground v.1.15,2013-02-11 00:59:00,
2013-02-10 20:04:00,72.0,63.3,30.23,East,91,0.0,10.0,74,0.00,,,0.02,Wunderground v.1.15,2013-02-11 01:04:00,
2013-02-10 20:09:00,72.1,63.4,30.23,SE,124,1.0,11.0,74,0.00,,,0.02,Wunderground v.1.15,2013-02-11 01:09:00,
2013-02-10 20:14:00,72.2,63.4,30.23,ESE,103,2.0,8.0,74,0.00,,,0.02,Wunderground v.1.15,2013-02-11 01:14:00,
2013-02-10 20:19:00,72.1,63.4,30.23,SE,125,1.0,8.0,74,0.00,,,0.02,Wunderground v.1.15,2013-02-11 01:19:00,
2013-02-10 20:24:00,72.1,63.4,30.23,East,100,0.0,6.0,74,0.00,,,0.02,Wunderground v.1.15,2013-02-11 01:24:00,
2013-02-10 20:29:00,72.1,63.4,30.23,ESE,110,0.0,6.0,74,0.00,,,0.02,Wunderground v.1.15,2013-02-11 01:29:00,
2013-02-10 20:34:00,72.0,63.6,30.23,ESE,111,3.0,8.0,75,0.00,,,0.02,Wunderground v.1.15,2013-02-11 01:34:00,
2013-02-10 20:39:00,72.0,63.6,30.23,East,85,0.0,10.0,75,0.00,,,0.02,Wunderground v.1.15,2013-02-11 01:39:00,
2013-02-10 20:45:00,71.9,63.5,30.23,East,91,3.0,5.0,75,0.00,,,0.02,Wunderground v.1.15,2013-02-11 01:45:00,
2013-02-10 20:50:00,71.9,63.5,30.23,East,93,8.0,8.0,75,0.00,,,0.02,Wunderground v.1.15,2013-02-11 01:50:00,
2013-02-10 20:55:00,72.0,63.6,30.24,East,90,0.0,8.0,75,0.00,,,0.02,Wunderground v.1.15,2013-02-11 01:55:00,
2013-02-10 21:00:00,71.9,63.9,30.23,East,91,3.0,3.0,76,0.00,,,0.02,Wunderground v.1.15,2013-02-11 02:00:00,
2013-02-10 21:05:00,71.9,63.9,30.23,ENE,73,0.0,7.0,76,0.00,,,0.02,Wunderground v.1.15,2013-02-11 02:05:00,
2013-02-10 21:10:00,71.9,63.9,30.23,SE,132,4.0,5.0,76,0.00,,,0.02,Wunderground v.1.15,2013-02-11 02:10:00,
2013-02-10 21:15:00,71.8,63.8,30.23,ESE,117,1.0,6.0,76,0.00,,,0.02,Wunderground v.1.15,2013-02-11 02:15:00,
2013-02-10 21:20:00,71.6,64.0,30.23,East,90,2.0,2.0,77,0.00,,,0.02,Wunderground v.1.15,2013-02-11 02:20:00,
2013-02-10 21:25:00,71.5,63.9,30.23,East,91,1.0,7.0,77,0.00,,,0.02,Wunderground v.1.15,2013-02-11 02:25:00,
2013-02-10 21:30:00,71.5,63.9,30.23,SE,127,0.0,4.0,77,0.00,,,0.02,Wunderground v.1.15,2013-02-11 02:30:00,
2013-02-10 21:35:00,71.6,63.6,30.24,SSE,153,3.0,11.0,76,0.00,,,0.02,Wunderground v.1.15,2013-02-11 02:35:00,
2013-02-10 21:40:00,71.6,63.6,30.24,East,86,1.0,3.0,76,0.00,,,0.02,Wunderground v.1.15,2013-02-11 02:40:00,
2013-02-10 21:45:00,71.6,63.6,30.24,East,85,0.0,6.0,76,0.00,,,0.02,Wunderground v.1.15,2013-02-11 02:45:00,
2013-02-10 21:50:00,71.6,64.0,30.24,East,82,0.0,4.0,77,0.00,,,0.02,Wunderground v.1.15,2013-02-11 02:50:00,
2013-02-10 21:55:00,71.6,64.0,30.24,ESE,108,0.0,4.0,77,0.00,,,0.02,Wunderground v.1.15,2013-02-11 02:55:00,
2013-02-10 22:00:00,71.6,64.0,30.24,East,90,9.0,9.0,77,0.00,,,0.02,Wunderground v.1.15,2013-02-11 03:00:00,
2013-02-10 22:05:00,71.6,64.0,30.24,ESE,108,0.0,9.0,77,0.00,,,0.02,Wunderground v.1.15,2013-02-11 03:05:00,
2013-02-10 22:10:00,71.6,64.0,30.23,ESE,108,0.0,4.0,77,0.00,,,0.02,Wunderground v.1.15,2013-02-11 03:10:00,
2013-02-10 22:15:00,71.6,64.0,30.23,East,101,3.0,5.0,77,0.00,,,0.02,Wunderground v.1.15,2013-02-11 03:15:00,
2013-02-10 22:20:00,71.6,64.0,30.23,East,96,1.0,4.0,77,0.00,,,0.02,Wunderground v.1.15,2013-02-11 03:20:00,
2013-02-10 22:25:00,71.5,64.3,30.23,SE,128,7.0,8.0,78,0.00,,,0.02,Wunderground v.1.15,2013-02-11 03:25:00,
2013-02-10 22:30:00,71.6,64.0,30.23,ESE,111,1.0,2.0,77,0.00,,,0.02,Wunderground v.1.15,2013-02-11 03:30:00,
2013-02-10 22:35:00,71.6,64.4,30.23,ESE,110,0.0,4.0,78,0.00,,,0.02,Wunderground v.1.15,2013-02-11 03:35:00,
2013-02-10 22:40:00,71.6,64.0,30.23,East,82,1.0,2.0,77,0.00,,,0.02,Wunderground v.1.15,2013-02-11 03:40:00,
2013-02-10 22:45:00,71.7,64.1,30.22,East,89,1.0,8.0,77,0.00,,,0.02,Wunderground v.1.15,2013-02-11 03:45:00,
2013-02-10 22:50:00,71.6,64.0,30.22,ESE,118,6.0,8.0,77,0.00,,,0.02,Wunderground v.1.15,2013-02-11 03:50:00,
2013-02-10 22:55:00,71.8,63.8,30.22,East,101,2.0,8.0,76,0.00,,,0.02,Wunderground v.1.15,2013-02-11 03:55:00,
2013-02-10 23:00:00,71.7,63.7,30.22,ESE,122,1.0,3.0,76,0.00,,,0.02,Wunderground v.1.15,2013-02-11 04:00:00,
2013-02-10 23:05:00,71.7,63.7,30.22,SE,124,2.0,8.0,76,0.00,,,0.02,Wunderground v.1.15,2013-02-11 04:05:00,
2013-02-10 23:10:00,71.5,63.5,30.22,ESE,111,5.0,6.0,76,0.00,,,0.02,Wunderground v.1.15,2013-02-11 04:10:00,
2013-02-10 23:15:00,71.5,63.9,30.22,ESE,104,5.0,7.0,77,0.00,,,0.02,Wunderground v.1.15,2013-02-11 04:15:00,
2013-02-10 23:20:00,71.6,64.0,30.22,East,92,4.0,4.0,77,0.00,,,0.02,Wunderground v.1.15,2013-02-11 04:20:00,
2013-02-10 23:25:00,71.6,64.0,30.22,East,87,0.0,9.0,77,0.00,,,0.02,Wunderground v.1.15,2013-02-11 04:25:00,
2013-02-10 23:30:00,71.6,64.0,30.22,ESE,107,1.0,2.0,77,0.00,,,0.02,Wunderground v.1.15,2013-02-11 04:30:00,
2013-02-10 23:35:00,71.6,64.0,30.22,ESE,103,5.0,6.0,77,0.00,,,0.02,Wunderground v.1.15,2013-02-11 04:35:00,
2013-02-10 23:40:00,71.6,64.0,30.22,SE,146,5.0,5.0,77,0.00,,,0.02,Wunderground v.1.15,2013-02-11 04:40:00,
2013-02-10 23:45:00,71.6,64.0,30.22,East,82,5.0,8.0,77,0.00,,,0.02,Wunderground v.1.15,2013-02-11 04:45:00,
2013-02-10 23:50:00,71.6,64.0,30.21,East,87,0.0,7.0,77,0.00,,,0.02,Wunderground v.1.15,2013-02-11 04:50:00,
2013-02-10 23:55:00,71.5,63.9,30.21,South,190,0.0,8.0,77,0.00,,,0.02,Wunderground v.1.15,2013-02-11 04:55:00,